Fairbanks, AK

1:53 PM AKST on December 11, 2019 (GMT -0900)
Fairbanks International

Weather History for PAFA - May, 2019

Change the Weather History Date:

Tuesday, May 21, 2019

  Actual Average Record
Temperature  
Mean Temperature 58 °F 52 °F  
Max Temperature 73 °F 63 °F 82 °F (2002)
Min Temperature 42 °F 40 °F 25 °F (1964)
Degree Days  
Heating Degree Days 7 14  
Month to date heating degree days 288 371  
Since 1 July heating degree days 11550 13395  
Cooling Degree Days 0 0  
Month to date cooling degree days 0 0  
Year to date cooling degree days 0 0  
Growing Degree Days 8 (Base 50)    
Moisture  
Dew Point 35 °F    
Average Humidity 43    
Maximum Humidity 82    
Minimum Humidity 12    
Precipitation  
Precipitation 0.00 in 0.02 in 0.38 in (1982)
Month to date precipitation 0.59 0.37  
Year to date precipitation 3.07 1.93  
Snow  
Snow 0.00 in 0.00 in T in (1950)
Month to date snowfall T 0.8  
Since 1 July snowfall 57.5 64.9  
Snow Depth 0.00 in    
Sea Level Pressure  
Sea Level Pressure 29.95 in    
Wind  
Wind Speed 2 mph (NW)    
Max Wind Speed 10 mph    
Max Gust Speed -    
Visibility 10 miles    
Events      
T = Trace of Precipitation, MM = Missing Value Source: NWS Daily Summary

Daily Weather History Graph

Daily Weather History Graph

Search for Another Location

Airport or City:

Astronomy

May. 21, 2019 Rise Set
Actual Time 4:08 AM AKDT 11:30 PM AKDT
Civil Twilight 2:20 AM AKDT 1:15 AM AKDT
Nautical Twilight Sun does not rise Sun does not rise
Astronomical Twilight Sun does not rise Sun does not rise
Moon 1:59 AM AKDT (5/21) 6:09 AM AKDT (5/21)
Length of Visible Light 22h 55m
Length of Day
19h 21m
Waning Gibbous, 90% of the Moon is Illuminated
May 21
Waning Gibbous
May 26
Last Quarter
Jun 3
New
Jun 9
First Quarter
Jun 17
Full

Hourly Weather History & Observations

Time (AKDT) Temp. Windchill Dew Point Humidity Pressure Visibility Wind Dir Wind Speed Gust Speed Precip Events Conditions
12:53 AM 53.1 °F - 34.0 °F 48% 29.86 in 10.0 mi Calm Calm - N/A   Mostly Cloudy
1:53 AM 45.0 °F 43.5 °F 37.9 °F 76% 29.88 in 10.0 mi ENE 3.5 mph - N/A   Mostly Cloudy
2:53 AM 48.0 °F - 37.0 °F 66% 29.89 in 10.0 mi NNE 3.5 mph - N/A   Mostly Cloudy
3:53 AM 44.1 °F - 37.9 °F 79% 29.92 in 10.0 mi Calm Calm - N/A   Mostly Cloudy
4:53 AM 43.0 °F - 37.9 °F 82% 29.94 in 10.0 mi Calm Calm - N/A   Mostly Cloudy
5:53 AM 44.1 °F - 39.0 °F 82% 29.95 in 10.0 mi Calm Calm - N/A   Mostly Cloudy
6:53 AM 46.9 °F - 36.0 °F 66% 29.95 in 10.0 mi Calm Calm - N/A   Mostly Cloudy
7:53 AM 48.9 °F - 37.0 °F 64% 29.96 in 10.0 mi SE 4.6 mph - N/A   Scattered Clouds
8:53 AM 53.1 °F - 34.0 °F 48% 29.97 in 10.0 mi Calm Calm - N/A   Scattered Clouds
9:53 AM 57.0 °F - 35.1 °F 44% 29.98 in 10.0 mi Calm Calm - N/A   Mostly Cloudy
10:53 AM 62.1 °F - 37.9 °F 41% 29.98 in 10.0 mi Calm Calm - N/A   Mostly Cloudy
11:53 AM 66.0 °F - 35.1 °F 32% 29.97 in 10.0 mi WNW 3.5 mph - N/A   Mostly Cloudy
12:53 PM 70.0 °F - 30.0 °F 23% 29.97 in 10.0 mi Calm Calm - N/A   Mostly Cloudy
1:53 PM 70.0 °F - 30.0 °F 23% 29.96 in 10.0 mi Calm Calm - N/A   Mostly Cloudy
2:53 PM 71.1 °F - 30.0 °F 22% 29.96 in 10.0 mi NNW 4.6 mph - N/A   Mostly Cloudy
3:53 PM 73.0 °F - 30.9 °F 21% 29.95 in 10.0 mi Calm Calm - N/A   Mostly Cloudy
4:53 PM 73.0 °F - 33.1 °F 23% 29.94 in 10.0 mi WNW 3.5 mph - N/A   Mostly Cloudy
5:53 PM 73.0 °F - 34.0 °F 24% 29.94 in 10.0 mi South 4.6 mph - N/A   Mostly Cloudy
6:53 PM 75.0 °F - 33.1 °F 22% 29.94 in 10.0 mi NNE 3.5 mph - N/A   Mostly Cloudy
7:53 PM 69.1 °F - 34.0 °F 27% 29.95 in 10.0 mi West 10.4 mph - N/A   Mostly Cloudy
8:53 PM 68.0 °F - 34.0 °F 28% 29.95 in 10.0 mi WNW 6.9 mph - N/A   Mostly Cloudy
9:53 PM 66.0 °F - 33.1 °F 29% 29.96 in 10.0 mi NW 6.9 mph - N/A   Mostly Cloudy
10:53 PM 62.1 °F - 35.1 °F 37% 29.97 in 10.0 mi West 3.5 mph - N/A   Mostly Cloudy
11:53 PM 54.0 °F - 37.9 °F 55% 29.98 in 10.0 mi Calm Calm - N/A   Mostly Cloudy